"Pseudo-MPEC" for CER1502

Created 2026 Sep 2 21:35:04 UT using Find_Orb

Click here for an explanation of pseudo-MPECs

 
 Astrometry: 
     CER1502*1C2026 09 02.37136400 26 54.330-23 00 34.92   ~929o       VNEOCPG96
     CER1502 1C2026 09 02.37677300 26 35.358-22 59 58.38   ~929o 19.27GVNEOCPG96
     CER1502 1C2026 09 02.38220400 26 16.084-22 59 19.75   ~929o       VNEOCPG96
     CER1502 1C2026 09 02.41188900 24 29.236-22 55 35.54   ~92A5 18.73GVNEOCPG96
     CER1502 1C2026 09 02.41201900 24 28.764-22 55 34.28   ~92A5 19.16GVNEOCPG96
     CER1502 1C2026 09 02.41214900 24 28.271-22 55 32.99   ~92A5 18.85GVNEOCPG96
     CER1502 1C2026 09 02.41227900 24 27.846-22 55 31.94   ~92A5 18.97GVNEOCPG96

Station data:
(G96) Mt. Lemmon Survey  (N32.442729 W110.788720)
   US/Arizona.  Observer E. J. Christensen. Measurers T. Beuden, V. F.
   Carvajal, D. Fay, J. B. Fazekas, D. C. Fuls, A. R. Gibbs, A. D. Grauer, H.
   Gröller, J. K. Hogan, R. A. Kowalski, S. M. Larson, G. J. Leonard, D.
   Rankin, R. L. Seaman, F. C. Shelly, K. W. Wierzchoś. 1.5-m reflector + 10K
   CCD.

Orbital elements:  CER1502
   Perihelion 2026 Dec 15.482490 +/- 7.13 TT = 11:34:47.1 (JD 2461389.982490)
Epoch 2026 Sep  2.0 TT = JDT 2461285.5   Earth MOID: 0.0016   Ve: 0.0408
M 233.505963941 +/- 5.2             (J2000 ecliptic)             AutoNEOCP
n   1.210672103 +/- 0.0424          Peri.  142.894457 +/- 2.2
a   0.871869915 +/- 0.0204          Node   340.705681 +/- 0.08
e   0.22993220 +/- 0.0463           Incl.    7.366007 +/- 1.9
P   0.814/297.350d         H 29.10  G  0.15   U 10.6
q 0.671398942 +/- 0.0556    Q 1.072340888 +/- 0.0177
From 7 observations 2026 Sept. 2 (58.9 min); mean residual 0".26
Residuals in arcseconds: 
260902 G96  .23-  .14+    260902 G96  .07-  .29-    260902 G96  .39+  .17+    
260902 G96  .52+  .34-    260902 G96  .03-  .07-    
260902 G96  .30-  .22+    260902 G96  .29-  .17+    

Ephemerides (geocentric):
Date (UTC) HH   RA             Dec           delta  r     elong  mag " sig PA
---- --------  ------------   ------------  ------ ------ -----  --- --------
2026 09 02 22  23 49 41.388   -20 49 05.85  656237 1.0130 159.9 18.3 1163  82
2026 09 02 23  23 45 39.616   -20 34 55.08  636886 1.0129 160.8 18.2 1298  84
2026 09 03 00  23 41 23.582   -20 19 28.35  617716 1.0128 161.8 18.1 1442  85
2026 09 03 01  23 36 52.173   -20 02 37.12  598747 1.0126 162.7 18.0 1598  87
2026 09 03 02  23 32 04.178   -19 44 11.79  579997 1.0125 163.8 17.9 1765  88
2026 09 03 03  23 26 58.293   -19 24 01.58  561490 1.0124 164.8 17.8 1943  89
2026 09 03 04  23 21 33.114   -19 01 54.37  543251 1.0123 165.9 17.7 2135  90
2026 09 03 05  23 15 47.137   -18 37 36.62  525309 1.0122 167.1 17.6 2340  91
2026 09 03 06  23 09 38.757   -18 10 53.24  507695 1.0121 168.2 17.5 2558  92
2026 09 03 07  23 03 06.282   -17 41 27.49  490445 1.0120 169.3 17.4 2790  93
2026 09 03 08  22 56 07.940   -17 09 00.93  473600 1.0119 170.3 17.3 3035  94
2026 09 03 09  22 48 41.901   -16 33 13.44  457206 1.0118 171.1 17.2 3292  95
2026 09 03 10  22 40 46.309   -15 53 43.37  441314 1.0117 171.5 17.1 3561  96
2026 09 03 11  22 32 19.326   -15 10 07.78  425981 1.0115 171.5 17.0 3838  97
2026 09 03 12  22 23 19.190   -14 22 02.96  411270 1.0114 170.8 16.9 4121  98
2026 09 03 13  22 13 44.295   -13 29 05.19  397252 1.0113 169.6 16.9 4405  98
2026 09 03 14  22 03 33.289   -12 30 51.87  384004 1.0112 167.8 16.9 4683  99
2026 09 03 15  21 52 45.192   -11 27 03.01  371608 1.0111 165.6 16.9 4947 100
2026 09 03 16  21 41 19.533   -10 17 23.26  360156 1.0110 163.0 16.9 5188 100
2026 09 03 17  21 29 16.504   -09 01 44.21  349740 1.0109 160.1 17.0 5394 101
2026 09 03 18  21 16 37.107   -07 40 07.10  340457 1.0108 157.0 17.0 5552 101
2026 09 03 19  21 03 23.296   -06 12 45.43  332403 1.0106 153.6 17.1 5649 101
2026 09 03 20  20 49 38.083   -04 40 07.25  325670 1.0105 150.0 17.1 5670 101
2026 09 03 21  20 35 25.585   -03 02 56.51  320343 1.0104 146.2 17.2 5607 101
2026 09 03 22  20 20 50.995   -01 22 13.01  316493 1.0103 142.3 17.3 5450 100
2026 09 03 23  20 06 00.455   +00 20 49.48  314176 1.0102 138.3 17.4 5199  99
2026 09 04 00  19 51 00.845   +02 04 47.00  313425 1.0101 134.3 17.5 4855  98
2026 09 04 01  19 35 59.481   +03 48 10.74  314253 1.0099 130.2 17.6 4429  96
2026 09 04 02  19 21 03.763   +05 29 33.20  316646 1.0098 126.2 17.7 3937  93
2026 09 04 03  19 06 20.820   +07 07 34.22  320569 1.0097 122.2 17.9 3399  89
2026 09 04 04  18 51 57.181   +08 41 05.94  325966 1.0096 118.3 18.0 2842  83
2026 09 04 05  18 37 58.514   +10 09 15.99  332765 1.0095 114.6 18.2 2299  75
2026 09 04 06  18 24 29.459   +11 31 28.73  340881 1.0094 111.1 18.3 1820  62
2026 09 04 07  18 11 33.551   +12 47 24.69  350221 1.0092 107.7 18.5 1477  42
2026 09 04 08  17 59 13.238   +13 56 58.69  360690 1.0091 104.5 18.7 1363  16
2026 09 04 09  17 47 29.958   +15 00 17.17  372189 1.0090 101.4 18.8 1502 173
2026 09 04 10  17 36 24.266   +15 57 35.33  384627 1.0089  98.6 19.0 1803 156
2026 09 04 11  17 25 55.983   +16 49 14.33  397914 1.0088  96.0 19.2 2174 145
2026 09 04 12  17 16 04.351   +17 35 38.91  411966 1.0086  93.5 19.4 2559 137
2026 09 04 13  17 06 48.174   +18 17 15.49  426708 1.0085  91.2 19.5 2936 132
2026 09 04 14  16 58 05.948   +18 54 30.74  442068 1.0084  89.0 19.7 3293 128
2026 09 04 15  16 49 55.972   +19 27 50.53  457984 1.0083  87.0 19.8 3625 124
2026 09 04 16  16 42 16.430   +19 57 39.36  474400 1.0082  85.1 20.0 3932 122
2026 09 04 17  16 35 05.466   +20 24 19.90  491263 1.0081  83.4 20.2 4213 120
2026 09 04 18  16 28 21.230   +20 48 12.87  508529 1.0079  81.7 20.3 4470 118
2026 09 04 19  16 22 01.916   +21 09 36.98  526158 1.0078  80.2 20.5 4704 116
2026 09 04 20  16 16 05.790   +21 28 49.01  544114 1.0077  78.8 20.6 4917 115
2026 09 04 21  16 10 31.202   +21 46 03.88  562364 1.0076  77.4 20.7 5112 114